King Salmon, AK

1:26 PM AKST on February 08, 2016 (GMT -0900)
Port Heiden

Weather History for PAPH - January, 2014

Change the Weather History Date:

Monday, January 20, 2014

  Actual Average (WUND) Record (WUND)
Temperature  
Mean Temperature 38 °F -  
Max Temperature 42 °F - - (-1)
Min Temperature 35 °F - - (-1)
Degree Days  
Heating Degree Days 26    
Moisture  
Dew Point 30 °F    
Average Humidity 70    
Maximum Humidity 81    
Minimum Humidity 61    
Precipitation  
Precipitation 0.02 in - - ()
Sea Level Pressure  
Sea Level Pressure 29.02 in    
Wind  
Wind Speed 23 mph (SE)    
Max Wind Speed 41 mph    
Max Gust Speed 54 mph    
Visibility 9 miles    
Events      
Averages and records for this station are not official NWS values.
T = Trace of Precipitation, MM = Missing Value Source: NWS Daily Summary

Daily Weather History Graph

Daily Weather History Graph

Search for Another Location

Airport or City:

Trip Planner

Search our weather history database for the weather conditions in past years. The results will help you decide how hot, cold, wet, or windy it might be!

Date:

Astronomy

Jan. 20, 2014 Rise Set
Actual Time 9:54 AM AKST 5:37 PM AKST
Civil Twilight 9:09 AM AKST 6:22 PM AKST
Nautical Twilight 8:21 AM AKST 7:10 PM AKST
Astronomical Twilight 7:35 AM AKST 7:56 PM AKST
Moon 11:30 PM AKST (1/20) 10:58 AM AKST (1/20)
Length of Visible Light 9h 13m
Length of Day
7h 43m
Waning Gibbous, 81% of the Moon is Illuminated
Jan 20
Waning Gibbous
Jan 23
Last Quarter
Jan 30
New
Feb 6
First Quarter
Feb 14
Full

Hourly Weather History & Observations

Time (AKST) Temp. Windchill Dew Point Humidity Pressure Visibility Wind Dir Wind Speed Gust Speed Precip Events Conditions
12:16 AM 37.4 °F 30.3 °F 30.2 °F 75% 29.02 in 10.0 mi ENE 10.4 mph - N/A   Overcast
12:36 AM 37.4 °F 32.1 °F 28.4 °F 70% 29.03 in 10.0 mi East 6.9 mph - N/A   Overcast
12:56 AM 37.4 °F 29.8 °F 30.2 °F 75% 29.03 in 10.0 mi ENE 11.5 mph - N/A   Overcast
1:16 AM 39.2 °F 30.8 °F 32.0 °F 75% 29.02 in 10.0 mi ESE 15.0 mph - N/A   Overcast
1:36 AM 39.2 °F 29.8 °F 33.8 °F 81% 29.01 in 10.0 mi SE 18.4 mph - N/A   Overcast
1:56 AM 41.0 °F 32.2 °F 33.8 °F 76% 29.01 in 10.0 mi SE 18.4 mph - N/A   Overcast
2:16 AM 41.0 °F 31.9 °F 33.8 °F 76% 29.02 in 10.0 mi SE 19.6 mph 27.6 mph N/A   Overcast
2:36 AM 39.2 °F 28.7 °F 33.8 °F 81% 29.02 in 10.0 mi SE 23.0 mph 28.8 mph N/A   Overcast
2:56 AM 39.2 °F 28.3 °F 32.0 °F 75% 29.02 in 8.0 mi SE 25.3 mph 29.9 mph 0.02 in   Overcast
3:16 AM 39.2 °F 28.5 °F 30.2 °F 70% 29.02 in 6.0 mi SE 24.2 mph 28.8 mph N/A   Overcast
3:36 AM - - - N/A% 29.01 in 8.0 mi SE 26.5 mph 35.7 mph N/A   Overcast
3:56 AM - - - N/A% 29.02 in 8.0 mi SE 29.9 mph 36.8 mph N/A   Overcast
4:16 AM - - - N/A% 29.02 in 7.0 mi SE 29.9 mph 36.8 mph N/A   Overcast
4:36 AM 41.0 °F 30.7 °F 33.8 °F 76% 29.02 in 10.0 mi SE 25.3 mph 36.8 mph N/A   Mostly Cloudy
4:56 AM - - - N/A% 29.02 in 8.0 mi SE 31.1 mph 40.3 mph N/A   Mostly Cloudy
5:16 AM - - - N/A% 29.02 in 8.0 mi SE 28.8 mph 38.0 mph N/A   Overcast
5:36 AM 41.0 °F 30.2 °F 33.8 °F 76% 29.03 in 7.0 mi SE 27.6 mph 36.8 mph N/A   Mostly Cloudy
5:56 AM - - - N/A% 29.01 in 5.0 mi SE 32.2 mph 41.4 mph N/A   Overcast
6:16 AM 42.8 °F 31.9 °F 33.8 °F 70% 29.01 in 10.0 mi SE 32.2 mph 46.0 mph N/A   Mostly Cloudy
6:36 AM - - - N/A% 29.00 in 10.0 mi SE 33.4 mph 41.4 mph N/A   Overcast
6:56 AM - - - N/A% 29.00 in 10.0 mi ESE 32.2 mph 46.0 mph N/A   Overcast
7:16 AM - - - N/A% 29.00 in 9.0 mi SE 31.1 mph 39.1 mph N/A   Overcast
7:36 AM - - - N/A% 28.99 in 10.0 mi SE 41.4 mph 48.3 mph N/A   Overcast
7:56 AM - - - N/A% 28.99 in 8.0 mi SE 32.2 mph 42.6 mph N/A   Overcast
8:16 AM 42.8 °F 31.1 °F 33.8 °F 70% 28.97 in 10.0 mi SE 38.0 mph 54.1 mph N/A   Overcast
8:36 AM - - - N/A% 28.98 in 10.0 mi SE 33.4 mph 47.2 mph N/A   Overcast
8:56 AM - - - N/A% 28.96 in 10.0 mi ESE 36.8 mph 44.9 mph N/A   Overcast
9:16 AM 42.8 °F 32.1 °F 32.0 °F 66% 28.98 in 10.0 mi ESE 31.1 mph 44.9 mph N/A   Overcast
9:36 AM - - - N/A% 28.96 in 7.0 mi ESE 35.7 mph 39.1 mph N/A   Overcast
9:56 AM 42.8 °F 31.4 °F 33.8 °F 70% 28.97 in 5.0 mi SE 35.7 mph 48.3 mph N/A   Overcast
10:16 AM - - - N/A% 28.96 in 8.0 mi SE 34.5 mph 44.9 mph N/A   Overcast
10:36 AM - - - N/A% 28.97 in 4.0 mi SE 35.7 mph 46.0 mph N/A   Overcast
10:56 AM - - - N/A% 28.95 in 5.0 mi SE 34.5 mph 42.6 mph N/A   Overcast
11:16 AM 42.8 °F 31.9 °F 33.8 °F 70% 28.96 in 8.0 mi SE 32.2 mph 47.2 mph N/A   Mostly Cloudy
11:36 AM - - - N/A% 28.95 in 10.0 mi SE 32.2 mph 42.6 mph N/A   Overcast
11:56 AM - - - N/A% 28.94 in 9.0 mi ESE 34.5 mph 43.7 mph N/A   Overcast
12:16 PM - - - N/A% 28.93 in 10.0 mi ESE 33.4 mph 42.6 mph N/A   Overcast
12:36 PM - - - N/A% 28.94 in 8.0 mi SE 33.4 mph 41.4 mph N/A   Mostly Cloudy
12:56 PM - - - N/A% 28.93 in 7.0 mi SE 32.2 mph 46.0 mph N/A   Overcast
1:16 PM - - - N/A% 28.94 in 9.0 mi SE 35.7 mph 43.7 mph N/A   Overcast
1:36 PM - - - N/A% 28.93 in 10.0 mi SE 28.8 mph 39.1 mph N/A   Mostly Cloudy
1:56 PM - - - N/A% 28.93 in 10.0 mi SE 38.0 mph 44.9 mph N/A   Mostly Cloudy
2:16 PM - - - N/A% 28.95 in 10.0 mi SSE 31.1 mph 47.2 mph N/A   Partly Cloudy
2:36 PM - - - N/A% 28.95 in 10.0 mi SSE 38.0 mph 44.9 mph N/A   Clear
2:56 PM - - - N/A% 28.98 in 10.0 mi SE 28.8 mph 42.6 mph N/A   Clear
3:16 PM - - - N/A% 28.98 in 10.0 mi SE 32.2 mph 47.2 mph N/A   Clear
3:36 PM - - - N/A% 28.98 in 10.0 mi SE 32.2 mph 40.3 mph N/A   Clear
3:56 PM 42.8 °F 32.5 °F 30.2 °F 61% 29.00 in 10.0 mi SSE 28.8 mph 40.3 mph N/A   Clear
4:16 PM - - - N/A% 29.00 in 10.0 mi SE 29.9 mph 40.3 mph N/A   Clear
4:36 PM 41.0 °F 31.1 °F 30.2 °F 65% 29.04 in 10.0 mi SE 23.0 mph 36.8 mph N/A   Clear
4:56 PM 39.2 °F 29.0 °F 28.4 °F 65% 29.07 in 10.0 mi ESE 21.9 mph 26.5 mph N/A   Partly Cloudy
5:16 PM 39.2 °F 30.2 °F 28.4 °F 65% 29.08 in 10.0 mi ESE 17.3 mph 21.9 mph N/A   Scattered Clouds
5:36 PM 37.4 °F 27.2 °F 28.4 °F 70% 29.08 in 10.0 mi ESE 19.6 mph 26.5 mph N/A   Scattered Clouds
5:56 PM 37.4 °F 26.6 °F 28.4 °F 70% 29.08 in 10.0 mi SE 21.9 mph 25.3 mph N/A   Clear
6:16 PM 37.4 °F 27.2 °F 28.4 °F 70% 29.09 in 10.0 mi SE 19.6 mph - N/A   Partly Cloudy
6:36 PM 37.4 °F 27.8 °F 28.4 °F 70% 29.10 in 10.0 mi SE 17.3 mph 21.9 mph N/A   Mostly Cloudy
6:56 PM 39.2 °F 30.8 °F 28.4 °F 65% 29.11 in 10.0 mi SE 15.0 mph - N/A   Overcast
7:16 PM 39.2 °F 31.6 °F 28.4 °F 65% 29.11 in 10.0 mi SE 12.7 mph - N/A   Overcast
7:36 PM 39.2 °F 30.5 °F 28.4 °F 65% 29.11 in 10.0 mi SE 16.1 mph 24.2 mph N/A   Overcast
7:56 PM 39.2 °F 31.2 °F 28.4 °F 65% 29.11 in 10.0 mi SE 13.8 mph 24.2 mph N/A   Overcast
8:16 PM 37.4 °F 28.5 °F 28.4 °F 70% 29.12 in 10.0 mi ESE 15.0 mph 23.0 mph N/A   Overcast
8:36 PM 37.4 °F 29.3 °F 28.4 °F 70% 29.12 in 10.0 mi ESE 12.7 mph 19.6 mph N/A   Mostly Cloudy
8:56 PM 37.4 °F 27.5 °F 28.4 °F 70% 29.11 in 10.0 mi SE 18.4 mph - N/A   Mostly Cloudy
9:16 PM 37.4 °F 27.8 °F 28.4 °F 70% 29.11 in 10.0 mi SE 17.3 mph 25.3 mph N/A   Partly Cloudy
9:36 PM 37.4 °F 28.2 °F 28.4 °F 70% 29.11 in 10.0 mi SE 16.1 mph 21.9 mph N/A   Partly Cloudy
9:56 PM 37.4 °F 27.8 °F 28.4 °F 70% 29.10 in 10.0 mi SE 17.3 mph 24.2 mph N/A   Clear
10:16 PM 37.4 °F 27.8 °F 28.4 °F 70% 29.11 in 10.0 mi SE 17.3 mph - N/A   Scattered Clouds
10:36 PM 37.4 °F 30.3 °F 28.4 °F 70% 29.11 in 10.0 mi ESE 10.4 mph - N/A   Scattered Clouds
10:56 PM 35.6 °F 29.9 °F 28.4 °F 75% 29.12 in 10.0 mi SE 6.9 mph - N/A   Partly Cloudy
11:16 PM 35.6 °F 28.6 °F 28.4 °F 75% 29.12 in 10.0 mi SE 9.2 mph - N/A   Scattered Clouds
11:36 PM 35.6 °F 27.5 °F 26.6 °F 70% 29.12 in 10.0 mi ESE 11.5 mph - N/A   Scattered Clouds
11:56 PM 35.6 °F 27.5 °F 26.6 °F 70% 29.12 in 10.0 mi East 11.5 mph - N/A   Clear